Home   Weather   Stuttgart   Past weeks

Flag for Germany Past Weather in Stuttgart, Baden-Württemberg, Germany — Yesterday and Last 2 Weeks

Now
34 °F

Sunny.


Feels Like: 34 °F
Forecast: 37 / 56 °F
Wind: 2 mph from North

Location: Stuttgart-Echterdingen

Current Time: Feb 26, 2017 at 8:56:34 am

Latest Report: Feb 26, 2017 at 8:20 am


Visibility: 10 mi

Pressure: 30.04 "Hg

Humidity: 87%

Dew Point: 30 °F

Location of StuttgartLocation

Past Weather in Stuttgart — Graph

°F

Stuttgart Temperature Yesterday

Maximum temperature yesterday: 50 °F (at 3:20 pm)
Minimum temperature yesterday: 27 °F (at 6:50 am)
Average temperature yesterday: 38 °F

High & Low Weather Summary for the Past Weeks

 TemperatureHumidityPressure
High64 °F (Feb 23, 2:20 pm)100% (Feb 15, 6:50 am)30.54 "Hg (Feb 15, 6:50 am)
Low23 °F (Feb 14, 5:50 am)27% (Feb 23, 2:50 pm)29.50 "Hg (Feb 23, 3:50 pm)
Average41 °F79%30.17 "Hg
* Reported Feb 11 7:20 am — Feb 26 7:50 am, Stuttgart, Weather by CustomWeather, © 2017

Note: Actual official high and low records may vary slightly from our data, if they occured in-between our weather recording intervals... More about our weather records

Advertising

Stuttgart Weather History for the Previous 24 Hours

Scroll right to see more
 ConditionsComfort  
Time TempWeatherWind HumidityBarometerVisibility
7:50 am
Sun, Feb 26
32 °FSunny.2 mph87%30.04 "Hg10 mi
7:20 am32 °FSunny.2 mph87%30.04 "Hg10 mi
6:50 am32 °FClear.1 mph87%30.04 "Hg10 mi
6:20 am32 °FClear.2 mph87%30.04 "Hg10 mi
5:50 am32 °FClear.2 mph87%30.04 "Hg10 mi
5:20 am32 °FPassing clouds.3 mph87%30.04 "HgN/A
4:50 am34 °FClear.2 mph81%30.04 "Hg10 mi
4:20 am39 °FClear.1 mph65%30.04 "Hg10 mi
3:50 am37 °FClear.1 mph70%30.04 "Hg10 mi
3:20 am36 °FClear.1 mph75%30.04 "Hg10 mi
2:50 am36 °FClear.1 mph75%30.04 "Hg10 mi
2:20 am36 °FClear.1 mph75%30.04 "Hg10 mi
1:50 am36 °FClear.2 mph75%30.04 "Hg10 mi
1:20 am37 °FClear.1 mph70%30.07 "Hg10 mi
12:50 am37 °FClear.1 mph65%30.07 "Hg10 mi
12:20 am37 °FClear.2 mph65%30.07 "Hg10 mi
11:50 pm
Sat, Feb 25
37 °FClear.2 mph65%30.07 "Hg10 mi
11:20 pm37 °FClear.3 mph65%30.09 "Hg10 mi
10:50 pm37 °FClear.7 mph65%30.09 "Hg10 mi
10:20 pm37 °FClear.3 mph65%30.09 "Hg10 mi
9:50 pm39 °FClear.2 mph61%30.09 "Hg10 mi
9:20 pm39 °FClear.2 mph65%30.09 "Hg10 mi
8:50 pm39 °FClear.2 mph65%30.09 "Hg10 mi
8:20 pm39 °FClear.1 mph65%30.09 "Hg10 mi
7:50 pm41 °FClear.3 mph61%30.09 "Hg10 mi
7:20 pm41 °FClear.1 mph61%30.09 "Hg10 mi
6:50 pm45 °FClear.2 mph53%30.09 "Hg10 mi
6:20 pm46 °FClear.2 mph50%30.09 "Hg10 mi
5:50 pm46 °FSunny.5 mph53%30.09 "Hg10 mi
5:20 pm48 °FSunny.5 mph50%30.09 "Hg10 mi
4:50 pm48 °FPassing clouds.3 mph50%30.09 "HgN/A
4:20 pm48 °FPassing clouds.3 mph50%30.09 "HgN/A
3:50 pm50 °FSunny.2 mph47%30.12 "Hg10 mi
3:20 pm50 °FPassing clouds.3 mph47%30.12 "HgN/A
2:50 pm48 °FPassing clouds.3 mph50%30.12 "HgN/A
2:20 pm48 °FPassing clouds.3 mph50%30.12 "HgN/A
1:50 pm48 °FSunny.5 mph46%30.15 "Hg10 mi
1:20 pm46 °FSunny.5 mph53%30.15 "Hg10 mi
12:50 pm46 °FPassing clouds.5 mph50%30.18 "HgN/A
12:20 pm45 °FPassing clouds.5 mph61%30.18 "HgN/A
11:50 am43 °FPassing clouds.3 mph71%30.21 "HgN/A
11:20 am41 °FPassing clouds.3 mph70%30.21 "HgN/A
10:50 am39 °FPassing clouds.3 mph75%30.21 "HgN/A
10:20 am37 °FPassing clouds.5 mph81%30.21 "HgN/A
9:50 am36 °FPassing clouds.3 mph87%30.21 "HgN/A
9:20 am34 °FSunny.2 mph87%30.21 "Hg10 mi
8:50 am34 °FSunny.1 mph93%30.21 "Hg10 mi
8:20 am30 °FSunny.1 mph100%30.18 "Hg10 mi
Weather by CustomWeather, © 2017

See weather overviewHow to use our weather pages